Weather History for Carbondale, IL

Change the Weather History Date:

Wednesday, February 6, 2013

  Actual Average Record
Temperature  
Mean Temperature 39 °F -  
Max Temperature 51 °F 40 °F 68 °F (1925)
Min Temperature 27 °F 21 °F -2 °F (1978)
Degree Days  
Heating Degree Days 26    
Moisture  
Dew Point 28 °F    
Average Humidity 67    
Maximum Humidity 86    
Minimum Humidity 41    
Precipitation  
Precipitation 0.00 in - - ()
Sea Level Pressure  
Sea Level Pressure 30.19 in    
Wind  
Wind Speed 4 mph (ESE)    
Max Wind Speed 8 mph    
Max Gust Speed -    
Visibility 8 miles    
Events      
Averages and records for this station are not official NWS values.
T = Trace of Precipitation, MM = Missing Value Source: NWS Daily Summary

Daily Weather History Graph

Daily Weather History Graph

Search for Another Location

Airport:

Trip Planner

Search our weather history database for the weather conditions in past years. The results will help you decide how hot, cold, wet, or windy it might be!

Date:

Astronomy

Feb. 06, 2013 Rise Set
Actual Time 6:56 AM CST 5:26 PM CST
Civil Twilight 6:28 AM CST 5:53 PM CST
Nautical Twilight 5:57 AM CST 6:25 PM CST
Astronomical Twilight 5:27 AM CST 6:55 PM CST
Moon 3:37 AM CST (2/6) 1:46 PM CST (2/6)
Length of Visible Light 11h 25m
Length of Day
10h 30m
Waning Crescent, 17% of the Moon is Illuminated
Feb 6
Waning Crescent
Feb 10
New
Feb 17
First Quarter
Feb 25
Full
Mar 4
Last Quarter

Hourly Weather History & Observations

Time (CST) Temp. Windchill Dew Point Humidity Pressure Visibility Wind Dir Wind Speed Gust Speed Precip Events Conditions
12:52 AM 37.9 °F 35.5 °F 28.9 °F 70% 30.15 in 10.0 mi North 3.5 mph - N/A   Clear
1:52 AM 37.0 °F - 28.9 °F 73% 30.16 in 10.0 mi Calm Calm - N/A   Clear
2:52 AM 32.0 °F - 27.0 °F 82% 30.17 in 9.0 mi Calm Calm - N/A   Clear
3:52 AM 30.9 °F 26.2 °F 27.0 °F 85% 30.19 in 7.0 mi NNW 4.6 mph - N/A   Clear
4:52 AM 28.0 °F 24.2 °F 24.1 °F 85% 30.20 in 6.0 mi South 3.5 mph - N/A   Clear
5:52 AM 27.0 °F - 23.0 °F 85% 30.22 in 6.0 mi Calm Calm - N/A   Clear
6:21 AM 28.4 °F - 23.0 °F 80% 30.21 in 1.8 mi Calm Calm - N/A   Haze
6:30 AM 28.4 °F - 24.8 °F 86% 30.21 in 3.0 mi Calm Calm - N/A   Clear
6:52 AM 27.0 °F 23.0 °F 21.9 °F 81% 30.22 in 5.0 mi East 3.5 mph - N/A   Haze
7:52 AM 32.0 °F 28.7 °F 27.0 °F 82% 30.24 in 5.0 mi SE 3.5 mph - N/A   Haze
8:52 AM 37.9 °F 32.1 °F 30.0 °F 73% 30.25 in 7.0 mi SE 8.1 mph - N/A   Clear
9:52 AM 41.0 °F 37.1 °F 30.0 °F 65% 30.27 in 10.0 mi SSE 5.8 mph - N/A   Clear
10:52 AM 44.1 °F 40.1 °F 28.9 °F 55% 30.28 in 10.0 mi SSE 6.9 mph - N/A   Clear
11:52 AM 46.9 °F - 28.0 °F 48% 30.25 in 10.0 mi SSE 5.8 mph - N/A   Clear
12:52 PM 48.9 °F - 26.1 °F 41% 30.21 in 10.0 mi SE 4.6 mph - N/A   Clear
1:52 PM 51.1 °F - 28.9 °F 43% 30.18 in 10.0 mi ESE 4.6 mph - N/A   Clear
2:52 PM 51.1 °F - 28.0 °F 41% 30.18 in 10.0 mi SSE 5.8 mph - N/A   Clear
3:52 PM 51.1 °F - 28.9 °F 43% 30.16 in 10.0 mi East 8.1 mph - N/A   Clear
4:52 PM 48.9 °F - 30.9 °F 50% 30.15 in 10.0 mi East 8.1 mph - N/A   Clear
5:52 PM 46.0 °F 41.9 °F 30.9 °F 56% 30.14 in 10.0 mi East 8.1 mph - N/A   Clear
6:52 PM 45.0 °F 41.2 °F 30.9 °F 58% 30.16 in 10.0 mi ESE 6.9 mph - N/A   Clear
7:52 PM 43.0 °F 39.5 °F 33.1 °F 68% 30.15 in 10.0 mi ESE 5.8 mph - N/A   Clear
8:52 PM 42.1 °F 37.1 °F 32.0 °F 67% 30.15 in 10.0 mi ESE 8.1 mph - N/A   Clear
9:52 PM 41.0 °F 37.1 °F 32.0 °F 70% 30.13 in 10.0 mi SE 5.8 mph - N/A   Clear
10:52 PM 41.0 °F 39.0 °F 32.0 °F 70% 30.12 in 10.0 mi East 3.5 mph - N/A   Clear
11:52 PM 39.0 °F 35.7 °F 30.9 °F 73% 30.10 in 10.0 mi ESE 4.6 mph - N/A   Clear